Weather History for Montreal Mirabel, QC

Change the Weather History Date:

Wednesday, December 21, 2011

  Actual Average Record
Temperature  
Mean Temperature 20 °F -  
Max Temperature 32 °F 24 °F 66 °F (2008)
Min Temperature 8 °F 10 °F -22 °F (2004)
Degree Days  
Heating Degree Days 45    
Moisture  
Dew Point 19 °F    
Average Humidity 90    
Maximum Humidity 100    
Minimum Humidity 79    
Precipitation  
Precipitation 0.00 in - - ()
Sea Level Pressure  
Sea Level Pressure 29.86 in    
Wind  
Wind Speed 5 mph ()    
Max Wind Speed 10 mph    
Max Gust Speed -    
Visibility 5.5 miles    
Events Rain , Snow    
Averages and records for this station are not official NWS values.
T = Trace of Precipitation, MM = Missing Value Source: Averaged Metar Reports

Daily Weather History Graph

Daily Weather History Graph

Search for Another Location

Airport:

Trip Planner

Search our weather history database for the weather conditions in past years. The results will help you decide how hot, cold, wet, or windy it might be!

Date:

Astronomy

Dec. 21, 2011 Rise Set
Actual Time 7:33 AM EST 4:14 PM EST
Civil Twilight 6:59 AM EST 4:49 PM EST
Nautical Twilight 6:21 AM EST 5:26 PM EST
Astronomical Twilight 5:45 AM EST 6:03 PM EST
Moon 4:00 AM EST (12/21) 1:34 PM EST (12/21)
Length of Visible Light 9h 49m
Length of Day
8h 40m
Waning Crescent, 12% of the Moon is Illuminated
Dec 21
Waning Crescent
Dec 24
New
Jan 1
First Quarter
Jan 9
Full
Jan 16
Last Quarter

Hourly Weather History & Observations

Time (EST) Temp. Windchill Dew Point Humidity Pressure Visibility Wind Dir Wind Speed Gust Speed Precip Events Conditions
12:00 AM 8.6 °F 2.0 °F 5.0 °F 85% 30.11 in 25.0 mi NE 3.5 mph - N/A   Clear
1:00 AM 8.6 °F 2.0 °F 5.0 °F 85% 30.08 in 25.0 mi NNE 3.5 mph - N/A   Clear
2:00 AM 8.6 °F - 5.0 °F 85% 30.06 in 25.0 mi NE 2.3 mph - N/A   Partly Cloudy
3:00 AM 10.4 °F - 6.8 °F 85% 30.04 in 25.0 mi North 2.3 mph - N/A   Scattered Clouds
4:00 AM 14.0 °F 6.5 °F 10.4 °F 86% 30.01 in 25.0 mi NE 4.6 mph - N/A   Mostly Cloudy
5:00 AM 15.8 °F 8.6 °F 12.2 °F 86% 30.00 in 25.0 mi ENE 4.6 mph - N/A   Mostly Cloudy
7:00 AM 17.6 °F 9.3 °F 12.2 °F 79% 29.99 in 25.0 mi NNE 5.8 mph - N/A   Overcast
8:00 AM 17.6 °F 9.3 °F 14.0 °F 86% 29.99 in 15.0 mi NE 5.8 mph - N/A   Overcast
8:55 AM 19.4 °F 11.5 °F 14.0 °F 80% - 10.0 mi NE 5.8 mph - N/A Snow Light Snow
9:00 AM 19.4 °F 11.5 °F 14.0 °F 80% 29.97 in 8.0 mi NNE 5.8 mph - N/A Snow Light Snow
10:00 AM 19.4 °F 10.4 °F 15.8 °F 86% 29.95 in 6.0 mi NNE 6.9 mph - N/A Snow Light Snow
11:00 AM 21.2 °F 13.6 °F 17.6 °F 86% 29.91 in 8.0 mi NNE 5.8 mph - N/A Snow Light Snow
12:00 PM 23.0 °F 15.8 °F 17.6 °F 80% 29.86 in 8.0 mi NE 5.8 mph - N/A Snow Light Snow
1:00 PM 23.0 °F 17.0 °F 19.4 °F 86% 29.82 in 15.0 mi NNE 4.6 mph - N/A Snow Light Snow
1:15 PM 23.0 °F 14.7 °F 19.4 °F 86% - 6.0 mi NNE 6.9 mph - N/A Rain Light Freezing Rain
2:00 PM 23.0 °F 14.7 °F 21.2 °F 93% 29.79 in 4.0 mi NE 6.9 mph - N/A Rain Light Freezing Rain
2:12 PM 23.0 °F 12.4 °F 21.2 °F 93% - 2.5 mi NE 10.4 mph - N/A Rain Light Freezing Rain
2:50 PM 23.0 °F 13.1 °F 23.0 °F 100% - 1.2 mi NE 9.2 mph - N/A Rain Light Freezing Rain
3:00 PM 24.8 °F 15.3 °F 23.0 °F 93% 29.75 in 1.0 mi NE 9.2 mph - N/A Rain Light Freezing Rain
4:00 PM 24.8 °F 16.1 °F 24.8 °F 100% 29.74 in 1.5 mi NE 8.1 mph - N/A Rain Light Freezing Rain
5:00 PM 24.8 °F 16.9 °F 24.8 °F 100% 29.72 in 2.5 mi NE 6.9 mph - N/A   Light Freezing Drizzle
6:00 PM 26.6 °F 16.8 °F 24.8 °F 93% 29.68 in 2.5 mi NE 10.4 mph - N/A   Light Freezing Drizzle
6:43 PM 26.6 °F 20.0 °F 26.6 °F 100% - 2.0 mi NE 5.8 mph - N/A   Light Freezing Drizzle
7:00 PM 26.6 °F 20.0 °F 26.6 °F 100% 29.68 in 2.0 mi NE 5.8 mph - N/A   Light Freezing Drizzle
8:00 PM 28.4 °F 24.6 °F 28.4 °F 100% 29.66 in 2.0 mi NNE 3.5 mph - N/A   Light Freezing Drizzle
8:33 PM 30.2 °F 23.4 °F 28.4 °F 93% - 2.0 mi NE 6.9 mph - N/A Rain Light Freezing Rain
9:00 PM 30.2 °F 23.4 °F 30.2 °F 100% 29.63 in 3.0 mi NE 6.9 mph - N/A Rain Light Freezing Rain
10:00 PM 30.2 °F 24.3 °F 30.2 °F 100% 29.63 in 5.0 mi NE 5.8 mph - N/A Rain Light Freezing Rain
11:00 PM 32.0 °F 24.8 °F 30.2 °F 93% 29.62 in 10.0 mi NNE 8.1 mph - N/A Rain Light Freezing Rain
11:32 PM 32.0 °F 28.7 °F 30.2 °F 93% - 10.0 mi NNE 3.5 mph - N/A   Overcast